Wind_Speed
9 11 12 12 12 13 14 14 14 15 17 19 21 23 23 25 26 28 30 32 34 35 36 37 38 39 40 40 41 42 44 44 45 45 45 44 43 42 41 40 40 40 41 42
9 10 11 11 12 13 14 14 15 17 19 21 23 23 24 25 26 29 31 33 34 36 37 38 39 40 41 42 42 44 45 46 46 46 45 44 43 42 41 40 40 41 42 42
7 9 9 11 12 13 14 15 17 19 21 23 24 24 24 25 26 29 31 33 35 37 38 39 40 41 42 43 44 45 46 47 47 46 45 44 43 42 40 40 41 42 41 41
8 9 10 11 12 13 15 17 18 19 21 23 24 24 24 25 27 30 32 34 36 37 39 40 41 42 43 44 45 46 47 48 48 47 46 44 43 41 41 41 41 41 40 40
11 11 11 13 14 14 17 19 20 22 24 25 25 25 25 26 29 31 33 35 37 38 39 40 41 42 44 45 46 47 48 48 48 47 46 44 42 41 41 41 40 40 39 39
14 13 12 10 13 16 19 20 22 24 24 25 26 26 27 28 30 33 35 37 38 39 40 41 42 43 44 45 46 47 48 49 49 48 46 44 42 42 41 40 39 39 38 38
17 17 16 16 17 19 21 23 23 24 24 25 26 27 28 30 32 34 36 37 38 40 41 42 42 43 45 45 47 48 48 49 49 48 46 44 42 42 41 40 39 38 37 37
21 21 22 21 22 23 23 24 24 24 24 25 26 27 29 31 33 35 37 38 39 41 42 42 43 44 45 45 46 48 48 49 49 48 46 44 43 41 41 40 38 37 37 35
22 22 22 23 25 26 26 25 24 24 24 24 26 28 31 33 34 36 37 39 40 42 42 43 43 44 45 45 46 48 48 49 48 48 46 44 42 41 41 39 37 36 35 33
24 23 24 25 25 26 27 27 25 25 25 25 27 30 32 35 36 37 39 40 42 42 43 43 43 44 45 45 46 48 49 49 48 47 46 44 42 41 40 38 36 35 33 31
26 25 24 24 25 27 28 28 27 27 27 27 28 31 34 36 38 39 41 42 43 43 43 43 43 44 45 45 46 47 49 49 48 47 45 43 41 40 40 38 36 34 32 29
27 26 26 26 27 28 29 30 30 30 30 30 31 33 35 38 40 42 43 43 43 43 43 43 44 44 45 45 46 47 48 48 47 46 45 43 40 40 39 37 36 34 31 28
29 28 28 29 29 30 31 32 33 33 33 33 35 36 38 40 42 43 44 44 43 43 44 44 44 45 45 46 46 46 47 47 46 45 44 42 39 38 37 35 35 33 30 27
30 30 30 31 32 32 32 33 34 35 36 37 38 40 40 42 43 44 45 45 45 45 46 46 46 46 46 46 46 46 46 46 45 44 43 40 38 37 35 33 33 32 30 27
30 31 32 33 34 34 34 35 36 38 39 41 42 42 42 43 44 45 46 47 47 47 48 48 48 48 47 47 46 46 45 44 44 43 41 39 36 35 34 32 31 31 29 26
31 31 32 33 34 35 37 38 40 41 43 44 44 45 45 45 45 46 48 49 50 50 50 50 50 49 48 47 46 45 45 43 42 41 40 37 35 33 32 31 30 30 28 25
31 32 33 35 37 38 40 41 42 43 45 46 47 48 49 49 49 49 50 52 53 53 52 52 52 51 49 48 46 45 43 41 40 39 38 36 33 31 30 29 28 28 27 25
34 35 36 38 40 42 44 46 47 48 49 49 50 51 52 52 53 53 53 53 54 55 55 54 52 51 49 47 45 43 41 39 38 37 35 34 31 30 28 27 27 27 26 24
38 40 41 42 44 46 48 49 50 52 53 54 54 54 55 55 56 56 57 57 57 57 56 54 51 49 47 45 44 42 39 37 35 34 33 31 29 28 27 26 25 24 24 23
44 45 46 46 48 50 51 53 53 55 56 57 57 57 58 59 60 60 60 59 57 56 54 52 50 48 46 44 41 39 37 34 33 32 31 29 27 25 24 24 23 22 22 22
49 49 50 50 52 53 55 56 58 59 60 60 60 61 62 62 61 60 59 57 55 54 51 49 47 45 42 40 38 36 34 33 31 30 28 27 25 23 22 21 21 20 20 21
52 52 53 54 55 56 58 60 61 62 62 62 62 62 62 61 59 57 55 53 51 49 47 44 42 40 38 36 35 33 33 31 29 28 26 24 22 20 19 19 18 18 19 20
55 55 56 57 58 60 61 62 62 63 62 62 61 60 59 57 55 53 50 47 46 44 42 40 39 37 36 35 33 32 31 30 27 26 24 22 20 18 17 16 17 17 18 19
58 58 59 60 61 62 62 62 62 62 61 60 58 57 55 52 50 48 45 43 40 38 37 37 35 34 33 31 30 29 29 27 25 23 22 20 18 16 14 13 14 15 16 16
61 62 62 62 62 61 61 61 60 59 58 56 54 52 50 48 45 42 39 37 35 34 33 32 31 29 29 27 27 26 26 25 22 21 20 18 16 14 12 11 11 12 13 14
64 64 64 64 64 63 62 61 60 58 56 54 52 49 46 43 41 38 35 34 31 30 30 29 27 26 25 25 24 23 23 21 20 19 18 16 14 12 10 9 9 10 10 11
65 65 66 66 65 65 63 62 60 58 55 52 49 45 42 39 38 35 33 31 30 29 28 26 25 23 22 22 21 21 20 19 18 17 16 14 13 11 9 8 7 7 7 7
Wind_Direction
292 293 297 303 306 314 323 330 332 335 340 338 335 333 332 329 328 330 331 332 332 333 334 334 335 336 336 335 335 334 333 331 329 327 324 321 318 315 311 308 305 302 300 297
288 292 298 299 303 308 316 321 327 333 334 330 328 327 327 325 326 327 329 330 331 333 335 335 336 336 336 336 335 335 334 333 331 329 326 323 320 317 314 310 308 306 304 301
303 303 304 294 296 299 306 313 322 327 325 320 320 322 322 321 322 325 327 329 331 333 335 335 335 335 335 336 335 335 335 334 333 330 327 325 322 319 316 314 312 310 307 305
309 305 302 296 298 300 304 309 317 318 316 316 316 318 318 318 321 324 326 329 331 332 333 333 334 334 334 335 336 336 336 335 334 332 329 326 323 321 319 317 315 313 311 309
311 310 307 303 304 304 305 311 316 315 316 315 315 317 319 320 321 323 326 328 329 330 331 331 332 333 334 334 335 336 337 336 335 333 331 328 325 323 322 320 318 317 315 313
312 313 311 315 306 305 308 314 315 315 315 314 315 317 318 318 320 322 324 326 327 328 329 330 331 332 332 333 334 336 337 337 336 334 332 330 327 326 325 324 322 320 318 317
317 319 321 322 317 316 317 318 317 315 313 312 313 314 316 316 318 320 322 324 325 326 328 328 329 330 331 332 334 336 337 337 336 335 333 332 330 328 328 327 325 323 322 320
313 314 315 316 316 316 317 318 316 312 311 311 311 312 314 315 318 319 321 322 324 325 326 327 328 329 330 332 334 336 337 337 336 336 335 333 332 331 330 330 328 326 325 324
300 304 308 310 313 313 314 313 312 309 309 308 309 311 313 315 317 319 320 322 323 325 325 326 327 328 330 331 334 336 337 338 337 336 336 335 334 334 333 332 331 330 329 328
295 300 303 305 307 307 307 308 309 308 307 307 308 309 311 313 316 318 319 321 323 324 324 325 326 328 329 331 333 335 337 338 337 337 336 336 335 336 336 335 334 333 332 331
290 295 297 299 300 301 303 306 307 307 306 306 306 308 310 312 315 317 319 320 322 323 323 324 326 328 329 331 332 334 337 338 338 337 337 337 336 337 338 337 336 335 334 333
288 293 296 298 298 299 301 303 304 304 304 305 306 308 310 312 314 316 317 319 320 321 322 323 325 327 329 330 331 333 336 337 337 337 337 337 337 338 339 339 339 338 336 335
289 293 294 295 295 297 299 301 302 303 303 304 306 308 310 311 313 314 316 317 318 319 321 322 324 326 327 329 330 332 334 335 336 337 337 337 338 339 341 341 342 341 341 339
286 288 289 290 291 293 295 296 297 299 301 302 304 307 309 310 311 312 313 315 316 318 320 321 322 324 325 327 328 330 331 333 334 336 336 337 338 340 342 344 346 346 344 343
281 282 284 285 287 290 292 293 295 297 299 301 304 306 308 309 309 310 312 313 315 316 318 319 320 321 323 325 326 327 328 331 333 334 336 337 338 340 342 344 346 348 347 347
280 280 282 284 287 289 291 294 297 299 301 303 305 306 307 307 307 308 309 311 312 314 315 316 318 318 320 322 323 323 325 328 331 332 334 335 337 339 342 344 346 348 349 349
283 282 283 284 286 289 291 293 295 297 300 302 303 304 305 305 306 307 307 309 310 311 312 313 314 315 316 318 319 320 322 325 328 330 332 334 335 338 341 344 346 349 351 351
283 282 282 283 285 287 289 291 293 296 298 299 301 301 302 303 304 305 306 307 307 308 309 309 310 312 313 314 316 317 319 322 325 327 330 332 334 337 340 343 346 350 353 353
281 281 282 283 284 285 287 289 291 294 296 297 297 297 298 300 302 303 304 305 305 306 307 307 308 309 311 311 313 315 316 319 322 325 327 330 332 335 340 343 346 350 354 356
281 281 282 283 284 285 286 287 288 290 291 293 293 294 296 298 299 300 301 302 304 304 304 304 306 307 308 309 312 314 314 316 319 322 325 327 330 334 339 343 347 351 354 356
285 285 285 285 285 285 285 285 286 287 288 289 290 291 293 295 297 298 299 300 301 300 301 302 303 305 305 307 309 311 312 313 316 319 323 325 327 331 337 343 348 352 355 357
288 288 287 286 285 284 283 284 284 285 286 287 288 290 292 294 295 296 297 297 297 297 298 298 299 301 302 304 306 308 310 312 314 317 320 323 325 328 335 341 347 353 357 359
286 285 284 283 282 281 282 283 284 285 286 287 289 290 291 292 293 294 294 294 293 293 293 294 295 296 297 299 303 305 308 310 311 314 317 320 321 324 331 339 346 352 357 2
283 282 282 282 282 283 284 285 286 287 288 288 289 290 291 291 291 292 292 291 290 289 288 287 289 291 294 296 299 302 305 306 309 311 314 317 317 318 325 334 345 353 358 5
283 283 284 284 285 285 285 286 286 287 288 288 289 290 291 291 291 290 289 287 286 284 283 282 284 287 289 291 295 299 302 304 305 308 310 312 312 313 318 327 337 347 355 6
288 288 288 288 288 288 288 288 288 288 288 288 288 288 288 287 287 286 284 283 282 281 280 280 282 283 285 287 292 296 299 300 300 302 306 308 307 305 307 315 324 336 350 4
287 287 287 288 288 288 288 288 288 288 287 287 286 285 284 282 282 281 280 279 277 276 276 277 278 280 282 284 287 292 295 295 295 297 302 303 301 297 294 298 308 322 343 2
Height
5861 5860 5859 5857 5856 5854 5852 5851 5849 5847 5844 5842 5839 5836 5833 5829 5825 5821 5817 5812 5807 5801 5795 5788 5781 5774 5766 5759 5751 5744 5736 5728 5720 5711 5703 5695 5687 5680 5673 5667 5661 5655 5650 5645
5859 5857 5856 5855 5854 5852 5850 5848 5846 5844 5842 5839 5836 5833 5830 5826 5822 5818 5813 5808 5803 5796 5790 5782 5775 5768 5761 5753 5745 5737 5729 5720 5712 5703 5694 5685 5678 5670 5663 5656 5650 5643 5637 5632
5856 5854 5853 5852 5851 5849 5848 5846 5844 5842 5841 5836 5833 5830 5826 5822 5818 5814 5809 5803 5797 5791 5784 5777 5770 5762 5755 5747 5739 5730 5721 5712 5703 5694 5685 5677 5668 5660 5653 5646 5639 5632 5625 5618
5853 5852 5851 5851 5848 5846 5844 5843 5842 5839 5836 5833 5829 5826 5823 5819 5814 5809 5804 5798 5792 5785 5778 5771 5764 5756 5748 5740 5732 5723 5714 5705 5695 5686 5677 5668 5659 5651 5643 5636 5628 5620 5613 5606
5850 5848 5847 5846 5844 5843 5841 5839 5837 5834 5831 5827 5824 5821 5817 5813 5809 5804 5798 5792 5786 5780 5773 5766 5758 5750 5742 5734 5725 5716 5707 5697 5688 5678 5669 5660 5651 5642 5634 5626 5617 5609 5602 5594
5846 5844 5843 5845 5842 5839 5838 5835 5833 5829 5826 5822 5818 5815 5812 5807 5803 5798 5792 5786 5780 5774 5767 5760 5752 5744 5736 5727 5718 5709 5699 5690 5680 5670 5661 5652 5642 5634 5625 5616 5608 5599 5592 5584
5841 5840 5839 5838 5836 5834 5833 5831 5827 5824 5820 5816 5813 5810 5806 5801 5796 5791 5786 5780 5774 5767 5760 5753 5745 5737 5729 5720 5711 5702 5692 5682 5672 5662 5653 5643 5634 5625 5616 5608 5599 5590 5582 5574
5837 5836 5836 5833 5830 5829 5827 5824 5821 5818 5814 5810 5807 5803 5799 5795 5790 5785 5780 5774 5767 5761 5753 5746 5738 5731 5722 5713 5704 5695 5685 5675 5665 5655 5645 5636 5626 5617 5608 5599 5590 5582 5574 5565
5834 5834 5830 5827 5825 5822 5820 5818 5815 5812 5808 5805 5801 5797 5793 5788 5783 5778 5773 5767 5760 5753 5746 5739 5731 5723 5715 5706 5697 5688 5678 5668 5658 5647 5637 5628 5619 5610 5601 5591 5583 5575 5566 5558
5828 5827 5824 5822 5819 5816 5813 5811 5808 5805 5802 5798 5795 5790 5786 5781 5776 5771 5765 5759 5753 5746 5739 5731 5724 5716 5708 5699 5690 5681 5671 5661 5651 5641 5631 5621 5612 5603 5594 5585 5576 5568 5560 5552
5822 5821 5818 5816 5813 5810 5806 5803 5801 5798 5795 5792 5788 5784 5779 5774 5769 5763 5757 5751 5745 5738 5731 5724 5716 5708 5700 5692 5683 5674 5664 5655 5645 5635 5625 5616 5606 5597 5588 5579 5570 5563 5555 5547
5815 5813 5811 5808 5805 5802 5799 5796 5793 5790 5788 5785 5781 5777 5772 5766 5761 5755 5749 5743 5736 5730 5723 5716 5708 5701 5693 5685 5676 5668 5659 5649 5639 5630 5620 5611 5602 5592 5583 5574 5566 5557 5550 5543
5806 5804 5802 5799 5796 5794 5791 5788 5785 5782 5779 5776 5773 5768 5764 5758 5752 5746 5740 5734 5728 5722 5715 5708 5701 5693 5685 5677 5669 5661 5652 5644 5634 5625 5616 5606 5597 5589 5580 5571 5562 5554 5546 5539
5798 5796 5793 5791 5788 5785 5783 5780 5777 5773 5770 5767 5763 5759 5755 5749 5743 5737 5731 5726 5719 5713 5706 5700 5693 5685 5678 5670 5662 5654 5646 5637 5629 5620 5611 5602 5593 5585 5576 5568 5560 5552 5544 5537
5790 5787 5784 5781 5779 5776 5774 5771 5767 5764 5761 5757 5753 5749 5744 5739 5733 5727 5722 5716 5710 5703 5697 5690 5684 5677 5670 5662 5655 5647 5639 5631 5623 5614 5606 5598 5589 5581 5573 5565 5558 5550 5542 5535
5781 5778 5775 5772 5770 5767 5763 5760 5757 5753 5749 5746 5742 5738 5733 5728 5723 5718 5712 5706 5700 5694 5687 5681 5675 5668 5661 5654 5647 5640 5632 5625 5617 5610 5602 5594 5586 5578 5571 5563 5556 5548 5541 5534
5771 5768 5765 5762 5759 5756 5753 5749 5746 5743 5739 5735 5731 5726 5722 5717 5712 5707 5701 5695 5689 5683 5677 5671 5665 5659 5652 5646 5639 5632 5625 5618 5611 5604 5597 5590 5582 5575 5568 5561 5554 5547 5540 5533
5758 5756 5753 5751 5748 5745 5741 5738 5734 5730 5727 5723 5719 5714 5710 5705 5700 5695 5689 5684 5678 5672 5666 5660 5655 5649 5643 5637 5631 5625 5618 5612 5606 5599 5593 5586 5579 5572 5565 5559 5552 5545 5539 5533
5745 5743 5740 5738 5735 5732 5728 5725 5721 5718 5714 5710 5705 5701 5696 5692 5687 5682 5677 5672 5666 5660 5655 5649 5644 5639 5633 5628 5622 5617 5611 5606 5600 5594 5588 5582 5575 5569 5563 5557 5550 5544 5538 5532
5733 5730 5728 5725 5722 5719 5715 5711 5707 5703 5700 5695 5691 5686 5682 5678 5674 5669 5664 5659 5653 5648 5643 5638 5633 5628 5623 5618 5614 5609 5604 5599 5594 5589 5583 5578 5572 5566 5561 5555 5549 5543 5537 5532
5719 5717 5714 5712 5708 5704 5700 5696 5692 5688 5684 5679 5675 5671 5667 5664 5659 5654 5649 5645 5641 5635 5631 5626 5622 5618 5614 5609 5605 5601 5597 5592 5588 5583 5578 5573 5568 5563 5558 5553 5548 5542 5537 5531
5704 5701 5698 5695 5691 5687 5683 5678 5674 5670 5667 5663 5659 5655 5651 5648 5644 5639 5635 5631 5627 5622 5618 5615 5611 5608 5604 5600 5597 5593 5590 5586 5582 5578 5574 5569 5565 5561 5556 5552 5547 5542 5537 5532
5686 5682 5679 5675 5671 5667 5663 5659 5655 5652 5649 5646 5642 5638 5635 5631 5628 5624 5620 5617 5612 5609 5606 5603 5600 5597 5594 5592 5589 5586 5583 5579 5576 5573 5569 5565 5561 5558 5554 5550 5546 5542 5537 5532
5666 5662 5658 5654 5650 5647 5644 5640 5637 5633 5630 5627 5624 5620 5617 5615 5612 5608 5605 5602 5598 5596 5593 5591 5589 5587 5585 5583 5581 5578 5575 5573 5570 5567 5564 5561 5558 5555 5552 5549 5545 5541 5538 5534
5645 5641 5638 5634 5631 5627 5624 5621 5618 5615 5612 5609 5606 5603 5600 5597 5595 5593 5590 5588 5585 5583 5581 5579 5578 5577 5576 5574 5572 5570 5568 5566 5564 5562 5560 5557 5554 5552 5550 5547 5544 5541 5538 5535
5622 5619 5616 5612 5609 5606 5603 5600 5598 5595 5593 5591 5589 5587 5584 5582 5580 5578 5577 5575 5573 5571 5570 5569 5568 5568 5567 5566 5565 5563 5562 5560 5558 5557 5555 5553 5551 5549 5547 5545 5543 5541 5539 5536
5603 5599 5595 5592 5588 5584 5581 5579 5577 5575 5573 5572 5571 5570 5568 5567 5566 5565 5564 5562 5561 5561 5560 5559 5559 5559 5559 5558 5558 5557 5556 5554 5553 5552 5550 5549 5547 5546 5545 5543 5542 5540 5539 5537